KC5KKT Weather Reports


time (UTC)temp
C
wind
direction
speed
KPH
gust
KPH
rain 1hr
cm
rain 24hr
cm
rain mn
cm
humidity
%
barometer
mb
20260906220046 37 44 9.7 20.9 0.00 0.00 0.00 42 1011.0
20260906214553 38 104 6.4 16.1 0.00 0.00 0.00 42 1011.1
20260906213054 37 216 4.8 22.5 0.00 0.00 0.00 42 1011.3
20260906211545 37 134 6.4 20.9 0.00 0.00 0.00 44 1011.6
20260906210048 37 120 4.8 11.3 0.00 0.00 0.00 43 1011.9
20260906204559 37 146 8.0 20.9 0.00 0.00 0.00 44 1012.1
20260906203059 37 0 6.4 16.1 0.00 0.00 0.00 44 1012.5
20260906201545 37 143 6.4 19.3 0.00 0.00 0.00 45 1012.5
20260906200044 36 120 6.4 14.5 0.00 0.00 0.00 45 1012.6
20260906194551 36 92 6.4 17.7 0.00 0.00 0.00 46 1012.8
20260906193056 36 0 8.0 27.4 0.00 0.00 0.00 46 1013.0
20260906191545 37 108 12.9 24.1 0.00 0.00 0.00 45 1013.2
20260906190046 36 193 12.9 22.5 0.00 0.00 0.00 45 1013.3
20260906184551 36 264 6.4 17.7 0.00 0.00 0.00 45 1013.4
20260906183046 37 126 8.0 19.3 0.00 0.00 0.00 46 1013.7
20260906181550 35 85 6.4 24.1 0.00 0.00 0.00 50 1013.8
20260906174544 36 142 4.8 17.7 0.00 0.00 0.00 48 1014.4
20260906173049 36 156 1.6 17.7 0.00 0.00 0.00 48 1014.6
20260906171556 35 90 6.4 20.9 0.00 0.00 0.00 51 1014.7
20260906170048 35 105 6.4 16.1 0.00 0.00 0.00 50 1015.0
20260906164544 35 84 6.4 19.3 0.00 0.00 0.00 50 1014.9
20260906163056 35 149 4.8 12.9 0.00 0.00 0.00 50 1014.9
20260906161546 34 141 4.8 11.3 0.00 0.00 0.00 53 1015.0
20260906160052 33 126 1.6 14.5 0.00 0.00 0.00 55 1014.8
20260906154552 33 84 3.2 11.3 0.00 0.00 0.00 56 1014.9
20260906153045 32 99 1.6 12.9 0.00 0.00 0.00 59 1015.0
20260906151546 32 0 0.0 6.4 0.00 0.00 0.00 62 1014.7
20260906150109 31 0 0.0 3.2 0.00 0.00 0.00 66 1014.9
20260906144549 31 0 0.0 3.2 0.00 0.00 0.00 68 1015.0
20260906143051 30 0 0.0 4.8 0.00 0.00 0.00 71 1014.9
20260906141548 30 154 1.6 6.4 0.00 0.00 0.00 73 1014.9
20260906140054 29 0 0.0 1.6 0.00 0.00 0.00 75 1014.9
20260906134546 29 0 0.0 1.6 0.00 0.00 0.00 77 1014.7
20260906133110 28 0 0.0 3.2 0.00 0.00 0.00 80 1014.6
20260906131545 27 104 0.0 3.2 0.00 0.00 0.00 81 1014.6
20260906130106 26 0 0.0 1.6 0.00 0.00 0.00 83 1014.5
20260906124550 26 0 0.0 1.6 0.00 0.00 0.00 85 1014.4
20260906123046 25 0 0.0 1.6 0.00 0.00 0.00 87 1014.4
20260906121544 25 0 0.0 0.0 0.00 0.00 0.00 87 1014.2
20260906120044 25 0 0.0 0.0 0.00 0.00 0.00 87 1014.1
20260906114552 25 0 0.0 0.0 0.00 0.00 0.00 86 1014.1
20260906113046 25 0 0.0 0.0 0.00 0.00 0.00 85 1014.0
20260906111601 25 0 0.0 3.2 0.00 0.00 0.00 83 1013.7
20260906110056 25 0 0.0 0.0 0.00 0.00 0.00 82 1013.5
20260906104549 25 0 0.0 0.0 0.00 0.00 0.00 82 1013.4
20260906103045 25 0 0.0 0.0 0.00 0.00 0.00 82 1013.4
20260906101546 25 0 0.0 0.0 0.00 0.00 0.00 80 1013.1
20260906100054 26 0 0.0 1.6 0.00 0.00 0.00 79 1013.1
20260906094547 26 180 0.0 4.8 0.00 0.00 0.00 79 1013.1
20260906093045 26 0 0.0 1.6 0.00 0.00 0.00 78 1013.0
20260906091546 26 220 1.6 3.2 0.00 0.00 0.00 79 1012.9
20260906090056 26 0 0.0 0.0 0.00 0.00 0.00 79 1013.0
20260906084545 26 0 0.0 3.2 0.00 0.00 0.00 79 1013.0
20260906083050 26 0 1.6 4.8 0.00 0.00 0.00 78 1012.8
20260906081546 26 195 4.8 8.0 0.00 0.00 0.00 78 1012.8
20260906080047 26 162 3.2 4.8 0.00 0.00 0.00 76 1012.8
20260906074546 26 163 1.6 4.8 0.00 0.00 0.00 76 1012.6
20260906073048 26 168 3.2 6.4 0.00 0.00 0.00 76 1012.7
20260906071545 27 167 4.8 6.4 0.00 0.00 0.00 76 1012.8
20260906070058 27 179 0.0 4.8 0.00 0.00 0.00 74 1012.8
20260906064552 27 0 0.0 3.2 0.00 0.00 0.00 74 1013.1
20260906063046 27 216 3.2 4.8 0.00 0.00 0.00 75 1012.9
20260906061546 27 207 0.0 3.2 0.00 0.00 0.00 74 1013.1
20260906060045 28 0 0.0 4.8 0.00 0.00 0.00 73 1013.0
20260906054600 28 167 4.8 6.4 0.00 0.00 0.00 71 1013.0
20260906053044 28 0 3.2 6.4 0.00 0.00 0.00 70 1013.1
20260906051604 28 151 3.2 8.0 0.00 0.00 0.00 69 1013.1
20260906050046 29 203 4.8 6.4 0.00 0.00 0.00 69 1012.9
20260906044553 29 169 4.8 9.7 0.00 0.00 0.00 67 1012.9
20260906043047 30 143 6.4 11.3 0.00 0.00 0.00 67 1013.0
20260906041546 30 174 3.2 8.0 0.00 0.00 0.00 66 1013.2
20260906040130 30 163 6.4 11.3 0.00 0.00 0.00 63 1013.2
20260906034558 30 151 6.4 12.9 0.00 0.00 0.00 62 1013.1
20260906033101 30 0 3.2 8.0 0.00 0.00 0.00 60 1012.9
20260906031544 31 143 0.0 4.8 0.00 0.00 0.00 58 1012.8
20260906030048 31 0 0.0 1.6 0.00 0.00 0.00 57 1012.8
20260906024554 31 0 0.0 3.2 0.00 0.00 0.00 56 1012.5
20260906023044 31 0 0.0 1.6 0.00 0.00 0.00 55 1012.4
20260906021546 31 0 0.0 1.6 0.00 0.00 0.00 55 1012.1
20260906020046 32 0 0.0 0.0 0.00 0.00 0.00 53 1012.0
20260906014551 32 0 0.0 0.0 0.00 0.00 0.00 52 1011.7
20260906013049 33 0 0.0 3.2 0.00 0.00 0.00 51 1011.6
20260906011547 33 166 0.0 3.2 0.00 0.00 0.00 50 1011.5
20260906010047 33 173 1.6 3.2 0.00 0.00 0.00 49 1011.5
20260906004554 35 129 1.6 6.4 0.00 0.00 0.00 47 1011.4
20260906003050 35 169 4.8 9.7 0.00 0.00 0.00 45 1011.3
20260906001547 36 139 4.8 11.3 0.00 0.00 0.00 44 1011.4
20260906000045 36 0 4.8 14.5 0.00 0.00 0.00 43 1011.2
20260905234544 36 163 1.6 8.0 0.00 0.00 0.00 43 1011.1
20260905233057 36 116 4.8 12.9 0.00 0.00 0.00 43 1011.0
20260905231545 37 135 0.0 9.7 0.00 0.00 0.00 42 1011.1
20260905230105 37 133 1.6 14.5 0.00 0.00 0.00 43 1011.1
20260905224611 36 0 3.2 11.3 0.00 0.00 0.00 43 1011.2
20260905223047 37 164 3.2 12.9 0.00 0.00 0.00 42 1011.2
20260905221553 37 141 6.4 14.5 0.00 0.00 0.00 41 1011.2